EW4496 Weather Reports


Display with metric or nautical units.
time (UTC)temp
F
wind
direction
speed
MPH
gust
MPH
rain 1hr
in
rain 24hr
in
rain mn
in
humidity
%
barometer
mb
20260509143019 59 244 0.0 0.0 0.00 0.00 0.00 81 1013.7
20260509141524 58 240 0.0 0.0 0.00 0.00 0.00 83 1013.6
20260509140018 57 217 0.0 0.0 0.00 0.00 0.00 86 1013.6
20260509134533 55 269 0.0 0.0 0.00 0.00 0.00 88 1013.6
20260509133035 54 270 0.0 0.0 0.00 0.00 0.00 90 1013.6
20260509131533 54 271 0.0 0.0 0.00 0.00 0.00 89 1013.4
20260509130034 54 273 0.0 0.0 0.00 0.00 0.00 90 1013.4
20260509124552 53 273 0.0 0.0 0.00 0.00 0.00 90 1013.2
20260509123048 53 273 0.0 0.0 0.00 0.00 0.00 91 1013.1
20260509121550 53 273 0.0 0.0 0.00 0.00 0.00 92 1013.1
20260509120050 53 273 0.0 0.0 0.00 0.00 0.00 91 1013.2
20260509114602 53 273 0.0 0.0 0.00 0.00 0.00 91 1013.2
20260509113102 54 250 0.0 0.0 0.00 0.00 0.00 90 1013.1
20260509111603 55 250 0.0 0.0 0.00 0.00 0.00 89 1013.1
20260509104504 55 198 0.0 0.0 0.00 0.00 0.00 88 1013.0
20260509103004 55 228 0.0 0.0 0.00 0.00 0.00 88 1013.0
20260509101505 56 232 0.0 0.0 0.00 0.00 0.00 88 1013.2
20260509100002 56 227 0.0 0.0 0.00 0.00 0.00 87 1013.2
20260509094517 57 225 0.0 0.0 0.00 0.00 0.00 87 1013.2
20260509093017 57 225 0.0 0.0 0.00 0.00 0.00 88 1013.2
20260509091519 57 224 0.0 0.0 0.00 0.00 0.00 88 1013.3
20260509090028 58 224 0.0 0.0 0.00 0.00 0.00 87 1013.3
20260509084527 57 241 0.0 0.0 0.00 0.00 0.00 88 1013.4
20260509083032 57 241 0.0 0.0 0.00 0.00 0.00 88 1013.5
20260509081531 58 241 0.0 0.0 0.00 0.00 0.00 86 1013.6
20260509080035 58 241 0.0 0.0 0.00 0.00 0.00 86 1013.6
20260509074536 58 241 0.0 0.0 0.00 0.00 0.00 86 1013.7
20260509073103 58 241 0.0 0.0 0.00 0.00 0.00 86 1013.7
20260509071555 58 241 0.0 0.0 0.00 0.00 0.00 86 1013.5
20260509070048 59 235 0.0 0.0 0.00 0.00 0.00 86 1013.4
20260509064546 60 238 0.0 0.0 0.00 0.00 0.00 85 1013.5
20260509063105 61 235 0.0 0.0 0.00 0.00 0.00 84 1013.5
20260509061601 62 233 0.0 0.0 0.00 0.00 0.00 84 1013.6
20260509060118 62 179 0.0 0.0 0.00 0.00 0.00 84 1013.6
20260509054601 63 256 0.0 0.0 0.00 0.00 0.00 82 1013.5
20260509053118 63 223 0.0 0.0 0.00 0.00 0.00 80 1013.5
20260509051613 63 328 0.0 0.0 0.00 0.00 0.00 80 1013.4
20260509050107 64 328 0.0 0.0 0.00 0.00 0.00 78 1013.4
20260509044608 65 327 0.0 0.0 0.00 0.00 0.00 78 1013.3
20260509043101 67 327 0.0 0.0 0.00 0.00 0.00 77 1013.2
20260509041601 68 328 0.0 0.0 0.00 0.00 0.00 74 1013.1
20260509040110 68 336 0.0 1.0 0.00 0.00 0.00 72 1012.8
20260509034605 69 337 0.0 0.0 0.00 0.00 0.00 72 1012.7
20260509033134 70 319 0.0 0.0 0.00 0.00 0.00 69 1012.7
20260509031600 72 322 0.0 1.0 0.00 0.00 0.00 66 1012.7
20260509030100 74 307 0.0 0.0 0.00 0.00 0.00 62 1012.6
20260509024608 77 307 0.0 1.0 0.00 0.00 0.00 61 1012.4
20260509023100 78 292 0.0 3.0 0.00 0.00 0.00 58 1012.3
20260509021600 81 309 0.0 2.0 0.00 0.00 0.00 55 1012.3
20260509020112 82 312 0.0 3.0 0.00 0.00 0.00 52 1012.1
20260509014615 82 319 0.0 3.0 0.00 0.00 0.00 51 1012.4
20260509013115 84 335 0.0 4.0 0.00 0.00 0.00 49 1012.4
20260509011616 84 344 0.0 4.0 0.00 0.00 0.00 49 1012.4
20260509010115 86 351 0.0 2.0 0.00 0.00 0.00 47 1012.4
20260509004614 87 319 0.0 1.0 0.00 0.00 0.00 44 1012.5
20260509003016 86 330 0.0 3.0 0.00 0.00 0.00 39 1012.6
20260509001514 86 292 0.0 0.0 0.00 0.00 0.00 40 1012.8
20260509000014 86 356 0.0 3.0 0.00 0.00 0.00 40 1012.8
20260508234514 86 305 0.0 0.0 0.00 0.00 0.00 41 1013.0
20260508233014 86 350 0.0 0.0 0.00 0.00 0.00 44 1013.2
20260508231514 85 353 0.0 1.0 0.00 0.00 0.00 42 1013.3
20260508230046 84 259 0.0 0.0 0.00 0.00 0.00 44 1013.5
20260508224559 83 235 0.0 2.0 0.00 0.00 0.00 46 1013.7
20260508223059 83 16 0.0 0.0 0.00 0.00 0.00 46 1014.0
20260508221614 82 22 0.0 4.0 0.00 0.00 0.00 47 1014.3
20260508220113 82 65 0.0 4.0 0.00 0.00 0.00 47 1014.4
20260508214559 81 46 0.0 1.0 0.00 0.00 0.00 48 1014.8
20260508213101 81 350 0.0 1.0 0.00 0.00 0.00 49 1015.0
20260508211514 80 24 0.0 3.0 0.00 0.00 0.00 49 1015.1
20260508210020 80 359 0.0 1.0 0.00 0.00 0.00 51 1015.4
20260508204509 80 319 0.0 2.0 0.00 0.00 0.00 53 1015.5
20260508203008 78 307 0.0 0.0 0.00 0.00 0.00 55 1015.6
20260508201608 78 4 0.0 2.0 0.00 0.00 0.00 53 1015.7
20260508200108 77 25 1.0 4.0 0.00 0.00 0.00 55 1016.0
20260508194609 76 150 0.0 2.0 0.00 0.00 0.00 58 1016.0
20260508193121 75 356 0.0 0.0 0.00 0.00 0.00 57 1016.2
20260508191613 75 342 0.0 1.0 0.00 0.00 0.00 57 1016.3
20260508190115 73 302 0.0 2.0 0.00 0.00 0.00 61 1016.5
20260508184618 72 335 0.0 0.0 0.00 0.00 0.00 63 1016.6
20260508183107 70 276 0.0 1.0 0.00 0.00 0.00 67 1016.7
20260508181608 70 217 0.0 1.0 0.00 0.00 0.00 68 1016.8
20260508180008 68 252 0.0 1.0 0.00 0.00 0.00 71 1016.7
20260508174509 65 187 0.0 1.0 0.00 0.00 0.00 74 1016.9
20260508173022 64 346 0.0 0.0 0.00 0.00 0.00 77 1017.0
20260508171525 63 338 0.0 0.0 0.00 0.00 0.00 78 1017.1
20260508170043 61 278 0.0 1.0 0.00 0.00 0.00 82 1017.1
20260508164544 61 303 0.0 0.0 0.00 0.00 0.00 83 1017.1
20260508163057 59 195 0.0 1.0 0.00 0.00 0.00 87 1017.0
20260508161552 57 195 0.0 1.0 0.00 0.00 0.00 88 1017.0
20260508160042 56 286 0.0 2.0 0.00 0.00 0.00 88 1017.2
20260508154542 56 282 0.0 2.0 0.00 0.00 0.00 88 1017.2
20260508153107 56 226 0.0 2.0 0.00 0.00 0.00 88 1017.2
20260508151557 56 245 0.0 1.0 0.00 0.00 0.00 88 1017.1
20260508150059 56 306 0.0 2.0 0.00 0.00 0.00 88 1017.1
20260508144557 56 283 0.0 2.0 0.00 0.00 0.00 89 1016.8